"Period start","avg(HW err(1)/warn(2) (#))","avg(Visibility (m))","avg(Weather code (#))","avg(Precip intensity (mm/h))","min(HW err(1)/warn(2) (#))","max(HW err(1)/warn(2) (#))","std(HW err(1)/warn(2) (#))","med(HW err(1)/warn(2) (#))","min(Visibility (m))","max(Visibility (m))","std(Visibility (m))","med(Visibility (m))","min(Weather code (#))","max(Weather code (#))","std(Weather code (#))","med(Weather code (#))","min(Precip intensity (mm/h))","max(Precip intensity (mm/h))","std(Precip intensity (mm/h))","med(Precip intensity (mm/h))"
2014-03-20 00:00:00,2,5971,71,0.22,2,2,0,2,3591,8163,1802,6134,71,71,0,71,0.00,0.50,0.14,0.20
2014-03-20 00:10:00,2,2292,71,1.06,2,2,0,2,1768,2643,231,2340,71,71,0,71,0.60,1.65,0.29,1.08
2014-03-20 00:20:00,2,2499,71,2.22,2,2,0,2,2007,2868,255,2534,71,71,0,71,1.25,3.05,0.55,2.25
2014-03-20 00:30:00,2,2171,71,1.52,2,2,0,2,1904,2524,163,2174,71,71,0,71,0.45,2.95,0.68,1.45
2014-03-20 00:40:00,2,2379,71,0.78,2,2,0,2,2089,2849,231,2376,71,71,0,71,0.35,1.55,0.38,0.68
2014-03-20 00:50:00,2,3026,71,0.08,2,2,0,2,2533,3711,350,2994,71,71,0,71,0.00,0.20,0.06,0.05
2014-03-20 01:00:00,2,2847,76,0.01,2,2,0,2,2044,3611,530,2786,71,78,3,78,0.00,0.10,0.03,0.00
2014-03-20 01:10:00,2,3638,22,0.00,2,2,0,2,2334,4836,808,3521,10,71,24,10,0.00,0.00,0.00,0.00
2014-03-20 01:20:00,2,3773,43,0.00,2,2,0,2,2569,5375,935,3622,10,78,33,40,0.00,0.00,0.00,0.00
2014-03-20 01:30:00,2,2397,74,0.07,2,2,0,2,1924,3005,371,2373,71,78,4,74,0.00,0.25,0.07,0.05
2014-03-20 01:40:00,2,3227,75,0.09,2,2,0,2,2424,3879,450,3305,71,77,3,77,0.05,0.20,0.05,0.05
2014-03-20 01:50:00,2,4264,77,0.04,2,2,0,2,3008,5853,752,4101,77,78,0,77,0.00,0.10,0.04,0.05
2014-03-20 02:00:00,2,3013,72,0.97,2,2,0,2,1826,3912,598,3164,71,77,2,71,0.10,1.85,0.55,0.95
2014-03-20 02:10:00,2,1919,71,1.84,2,2,0,2,1599,2349,232,1887,71,71,0,71,1.05,2.60,0.42,1.80
2014-03-20 02:20:00,2,2129,71,1.27,2,2,0,2,1688,2509,235,2102,71,71,0,71,0.65,2.65,0.56,1.10
2014-03-20 02:30:00,2,2982,71,0.57,2,2,0,2,2724,3245,158,2998,71,71,0,71,0.05,1.00,0.29,0.57
2014-03-20 02:40:00,2,4648,71,0.24,2,2,0,2,3150,6609,1257,4360,71,71,0,71,0.10,0.45,0.13,0.23
2014-03-20 02:50:00,2,5737,74,0.04,2,2,0,2,3045,8596,1745,5616,71,78,3,74,0.00,0.10,0.04,0.03
2014-03-20 03:00:00,2,6090,78,0.00,2,2,0,2,3741,8210,1283,5722,78,78,0,78,0.00,0.00,0.00,0.00
2014-03-20 03:10:00,2,4362,78,0.00,2,2,0,2,3364,5651,669,4321,78,78,0,78,0.00,0.00,0.00,0.00
2014-03-20 03:20:00,2,4411,71,0.00,2,2,0,2,3056,6165,935,4526,10,78,20,78,0.00,0.00,0.00,0.00
2014-03-20 03:30:00,2,2828,10,0.00,2,2,0,2,1429,4466,970,2556,10,10,0,10,0.00,0.00,0.00,0.00
2014-03-20 03:40:00,2,2699,42,0.04,2,2,0,2,1822,3661,636,2720,10,77,32,40,0.00,0.15,0.05,0.03
2014-03-20 03:50:00,2,2001,71,0.21,2,2,0,2,1304,3035,431,1978,71,71,0,71,0.05,0.35,0.10,0.20
2014-03-20 04:00:00,2,1446,71,0.82,2,2,0,2,1050,1804,211,1425,71,71,0,71,0.50,1.75,0.36,0.75
2014-03-20 04:10:00,2,1497,71,1.08,2,2,0,2,1325,1867,145,1467,71,71,0,71,0.65,1.45,0.26,1.02
2014-03-20 04:20:00,2,1704,71,0.90,2,2,0,2,1336,2069,213,1738,71,71,0,71,0.45,1.35,0.26,0.97
2014-03-20 04:30:00,2,1952,71,0.99,2,2,0,2,1523,2571,301,1868,71,71,0,71,0.40,1.40,0.38,1.08
2014-03-20 04:40:00,2,2065,71,0.78,2,2,0,2,1538,2735,327,2095,71,71,0,71,0.40,1.30,0.23,0.75
2014-03-20 04:50:00,2,1933,71,0.66,2,2,0,2,1511,2329,263,1878,71,71,0,71,0.50,1.00,0.19,0.55
2014-03-20 05:00:00,2,2116,71,0.64,2,2,0,2,1763,2635,289,2097,71,71,0,71,0.35,1.30,0.25,0.60
2014-03-20 05:10:00,2,2608,71,0.34,2,2,0,2,1921,3362,450,2732,71,71,0,71,0.15,1.05,0.26,0.25
2014-03-20 05:20:00,2,3157,71,0.14,2,2,0,2,1949,4963,758,3136,71,71,0,71,0.00,0.60,0.17,0.08
2014-03-20 05:30:00,2,3220,73,0.04,2,2,0,2,2718,4615,573,3060,71,77,3,71,0.00,0.10,0.03,0.05
2014-03-20 05:40:00,2,4232,77,0.00,2,2,0,2,2748,5305,855,4245,77,78,0,77,0.00,0.00,0.00,0.00
2014-03-20 05:50:00,2,3925,77,0.00,2,2,0,2,2717,5615,861,3785,77,78,0,77,0.00,0.00,0.00,0.00
2014-03-20 06:00:00,2,3812,71,0.00,2,2,0,2,2295,5366,1070,3759,10,78,20,78,0.00,0.00,0.00,0.00
2014-03-20 06:10:00,2,3116,10,0.00,2,2,0,2,2251,3925,627,3319,10,10,0,10,0.00,0.00,0.00,0.00
2014-03-20 06:20:00,2,3686,10,0.00,2,2,0,2,2133,5790,1069,3382,10,10,0,10,0.00,0.00,0.00,0.00
2014-03-20 06:30:00,2,3707,10,0.00,2,2,0,2,2166,5279,926,3816,10,10,0,10,0.00,0.00,0.00,0.00
2014-03-20 06:40:00,2,4458,43,0.01,2,2,0,2,3385,6276,852,4451,10,78,33,40,0.00,0.05,0.02,0.00
2014-03-20 06:50:00,2,4283,78,0.02,2,2,0,2,3198,5407,780,4348,78,78,0,78,0.00,0.10,0.03,0.00
2014-03-20 07:00:00,2,8506,71,0.00,2,2,0,2,4179,11983,2612,8816,10,78,20,78,0.00,0.00,0.00,0.00
2014-03-20 07:10:00,2,12652,6,0.00,2,2,0,2,9716,16335,1812,12144,0,10,5,10,0.00,0.00,0.00,0.00
2014-03-20 07:20:00,2,12568,0,0.00,2,2,0,2,8652,14651,1869,13123,0,0,0,0,0.00,0.00,0.00,0.00
2014-03-20 07:30:00,2,13736,0,0.00,2,2,0,2,9404,21547,3312,13628,0,0,0,0,0.00,0.00,0.00,0.00
2014-03-20 07:40:00,2,18265,0,0.00,2,2,0,2,14518,22422,2393,18184,0,0,0,0,0.00,0.00,0.00,0.00
2014-03-20 07:50:00,2,14672,0,0.00,2,2,0,2,10812,24001,3556,13704,0,0,0,0,0.00,0.00,0.00,0.00
2014-03-20 08:00:00,2,17089,0,0.00,2,2,0,2,13121,24723,3588,15832,0,0,0,0,0.00,0.00,0.00,0.00
2014-03-20 08:10:00,2,24239,0,0.00,2,2,0,2,16837,35478,5670,24031,0,0,0,0,0.00,0.00,0.00,0.00
2014-03-20 08:20:00,2,20118,0,0.00,2,2,0,2,15501,25681,3110,18939,0,0,0,0,0.00,0.00,0.00,0.00
2014-03-20 08:30:00,2,23238,0,0.00,2,2,0,2,19033,31147,3238,23072,0,0,0,0,0.00,0.00,0.00,0.00
2014-03-20 08:40:00,2,21687,0,0.00,2,2,0,2,16447,25720,2809,22689,0,0,0,0,0.00,0.00,0.00,0.00
2014-03-20 08:50:00,2,20643,0,0.00,2,2,0,2,17233,27402,3275,19490,0,0,0,0,0.00,0.00,0.00,0.00
2014-03-20 09:00:00,2,23407,0,0.00,2,2,0,2,18252,27285,3157,24002,0,0,0,0,0.00,0.00,0.00,0.00
2014-03-20 09:10:00,2,24892,0,0.00,2,2,0,2,21971,31385,2458,24342,0,0,0,0,0.00,0.00,0.00,0.00
2014-03-20 09:20:00,2,23066,0,0.00,2,2,0,2,20058,26354,1577,23182,0,0,0,0,0.00,0.00,0.00,0.00
2014-03-20 09:30:00,2,28869,0,0.00,2,2,0,2,24421,34918,3451,27370,0,0,0,0,0.00,0.00,0.00,0.00
2014-03-20 09:40:00,2,25669,0,0.00,2,2,0,2,23093,29993,1989,24844,0,0,0,0,0.00,0.00,0.00,0.00
2014-03-20 09:50:00,2,26498,0,0.00,2,2,0,2,23017,30190,2369,26504,0,0,0,0,0.00,0.00,0.00,0.00
2014-03-20 10:00:00,2,18499,38,0.00,2,2,0,2,13537,29830,5260,15642,0,78,38,36,0.00,0.00,0.00,0.00
2014-03-20 10:10:00,2,14967,77,0.02,2,2,0,2,12827,17702,1503,14804,71,78,2,78,0.00,0.10,0.03,0.00
2014-03-20 10:20:00,2,22359,76,0.00,2,2,0,2,19105,27398,2520,22212,71,78,3,78,0.00,0.00,0.00,0.00
2014-03-20 10:30:00,2,26237,0,0.00,2,2,0,2,23714,29888,1974,26348,0,0,0,0,0.00,0.00,0.00,0.00
2014-03-20 10:40:00,2,30006,0,0.00,2,2,0,2,27197,32033,1539,29852,0,0,0,0,0.00,0.00,0.00,0.00
2014-03-20 10:50:00,2,33756,0,0.00,2,2,0,2,28854,39529,3088,33860,0,0,0,0,0.00,0.00,0.00,0.00
2014-03-20 11:00:00,2,34879,0,0.00,2,2,0,2,31384,38583,2333,34760,0,0,0,0,0.00,0.00,0.00,0.00
2014-03-20 11:10:00,2,31934,0,0.00,2,2,0,2,28818,35631,2098,31491,0,0,0,0,0.00,0.00,0.00,0.00
2014-03-20 11:20:00,2,33547,0,0.00,2,2,0,2,28375,37823,3072,33464,0,0,0,0,0.00,0.00,0.00,0.00
2014-03-20 11:30:00,2,32143,0,0.00,2,2,0,2,29521,34404,1481,32202,0,0,0,0,0.00,0.00,0.00,0.00
2014-03-20 11:40:00,2,35301,0,0.00,2,2,0,2,30479,40043,3276,34776,0,0,0,0,0.00,0.00,0.00,0.00
2014-03-20 11:50:00,2,32967,0,0.00,2,2,0,2,27438,38186,3034,33544,0,0,0,0,0.00,0.00,0.00,0.00
2014-03-20 12:00:00,2,32384,0,0.00,2,2,0,2,27273,36548,2501,32090,0,0,0,0,0.00,0.00,0.00,0.00
2014-03-20 12:10:00,2,34146,0,0.00,2,2,0,2,29502,37739,2129,34287,0,0,0,0,0.00,0.00,0.00,0.00
2014-03-20 12:20:00,2,29210,7,0.01,2,2,0,2,14889,38413,6106,29456,0,71,21,0,0.00,0.05,0.02,0.00
2014-03-20 12:30:00,2,21403,72,0.01,2,2,0,2,18727,24756,2210,20862,71,78,2,71,0.00,0.10,0.03,0.00
2014-03-20 12:40:00,2,21903,76,0.01,2,2,0,2,15298,30055,4324,20840,71,78,3,78,0.00,0.05,0.02,0.00
2014-03-20 12:50:00,2,26454,0,0.00,2,2,0,2,23936,28934,1715,26500,0,0,0,0,0.00,0.00,0.00,0.00
2014-03-20 13:00:00,2,35868,0,0.00,2,2,0,2,32076,39363,2269,36055,0,0,0,0,0.00,0.00,0.00,0.00
2014-03-20 13:10:00,2,33688,0,0.00,2,2,0,2,31447,39434,2239,32905,0,0,0,0,0.00,0.00,0.00,0.00
2014-03-20 13:20:00,2,42309,0,0.00,2,2,0,2,37942,49607,3411,42102,0,0,0,0,0.00,0.00,0.00,0.00
2014-03-20 13:30:00,2,36128,0,0.00,2,2,0,2,32183,40711,2753,35850,0,0,0,0,0.00,0.00,0.00,0.00
2014-03-20 13:40:00,2,34905,0,0.00,2,2,0,2,32840,39939,1985,34258,0,0,0,0,0.00,0.00,0.00,0.00
2014-03-20 13:50:00,2,35032,0,0.00,2,2,0,2,30731,38988,2933,35218,0,0,0,0,0.00,0.00,0.00,0.00
2014-03-20 14:00:00,2,35224,0,0.00,2,2,0,2,29351,38982,3252,35937,0,0,0,0,0.00,0.00,0.00,0.00
2014-03-20 14:10:00,2,34788,0,0.00,2,2,0,2,30172,41960,3550,33242,0,0,0,0,0.00,0.00,0.00,0.00
2014-03-20 14:20:00,2,38128,0,0.00,2,2,0,2,33249,42149,3109,37934,0,0,0,0,0.00,0.00,0.00,0.00
2014-03-20 14:30:00,2,33258,0,0.00,2,2,0,2,30890,37605,1858,33532,0,0,0,0,0.00,0.00,0.00,0.00
2014-03-20 14:40:00,2,35493,0,0.00,2,2,0,2,32510,42863,3420,34070,0,0,0,0,0.00,0.00,0.00,0.00
2014-03-20 14:50:00,2,38007,0,0.00,2,2,0,2,33688,40496,1810,38367,0,0,0,0,0.00,0.00,0.00,0.00
2014-03-20 15:00:00,2,31406,0,0.00,2,2,0,2,28401,35382,2172,30675,0,0,0,0,0.00,0.00,0.00,0.00
2014-03-20 15:10:00,2,33737,0,0.00,2,2,0,2,29323,37718,2566,34074,0,0,0,0,0.00,0.00,0.00,0.00
2014-03-20 15:20:00,2,33174,0,0.00,2,2,0,2,26905,37251,3216,33094,0,0,0,0,0.00,0.00,0.00,0.00
2014-03-20 15:30:00,2,31908,0,0.00,2,2,0,2,27228,35694,2488,32042,0,0,0,0,0.00,0.00,0.00,0.00
2014-03-20 15:40:00,2,32360,0,0.00,2,2,0,2,28787,35452,2176,32692,0,0,0,0,0.00,0.00,0.00,0.00
2014-03-20 15:50:00,2,34586,0,0.00,2,2,0,2,28620,43499,4994,33078,0,0,0,0,0.00,0.00,0.00,0.00
2014-03-20 16:00:00,2,32720,0,0.00,2,2,0,2,27535,41552,3444,31647,0,0,0,0,0.00,0.00,0.00,0.00
2014-03-20 16:10:00,2,35575,0,0.00,2,2,0,2,30405,46495,4561,35402,0,0,0,0,0.00,0.00,0.00,0.00
2014-03-20 16:20:00,2,34620,0,0.00,2,2,0,2,27531,43116,4109,34587,0,0,0,0,0.00,0.00,0.00,0.00
2014-03-20 16:30:00,2,34003,0,0.00,2,2,0,2,30147,38927,3119,33418,0,0,0,0,0.00,0.00,0.00,0.00
2014-03-20 16:40:00,2,31460,0,0.00,2,2,0,2,27173,33969,2430,32504,0,0,0,0,0.00,0.00,0.00,0.00
2014-03-20 16:50:00,2,32608,0,0.00,2,2,0,2,26081,38082,3558,32665,0,0,0,0,0.00,0.00,0.00,0.00
2014-03-20 17:00:00,2,32283,0,0.00,2,2,0,2,30016,35673,1976,31382,0,0,0,0,0.00,0.00,0.00,0.00
2014-03-20 17:10:00,2,31118,0,0.00,2,2,0,2,27567,34598,2295,31227,0,0,0,0,0.00,0.00,0.00,0.00
2014-03-20 17:20:00,2,31594,0,0.00,2,2,0,2,26730,36671,2818,32236,0,0,0,0,0.00,0.00,0.00,0.00
2014-03-20 17:30:00,2,33293,0,0.00,2,2,0,2,27022,38109,3259,33022,0,0,0,0,0.00,0.00,0.00,0.00
2014-03-20 17:40:00,2,29973,0,0.00,2,2,0,2,25844,35721,2560,29958,0,0,0,0,0.00,0.00,0.00,0.00
2014-03-20 17:50:00,2,29546,0,0.00,2,2,0,2,24071,36374,3445,28790,0,0,0,0,0.00,0.00,0.00,0.00
2014-03-20 18:00:00,2,29166,0,0.00,2,2,0,2,25756,34609,2695,28438,0,0,0,0,0.00,0.00,0.00,0.00
2014-03-20 18:10:00,2,28915,0,0.00,2,2,0,2,25703,36372,3358,27428,0,0,0,0,0.00,0.00,0.00,0.00
2014-03-20 18:20:00,2,28712,0,0.00,2,2,0,2,26898,32079,1558,28695,0,0,0,0,0.00,0.00,0.00,0.00
2014-03-20 18:30:00,2,26745,0,0.00,2,2,0,2,24044,31511,2147,26632,0,0,0,0,0.00,0.00,0.00,0.00
2014-03-20 18:40:00,2,27384,0,0.00,2,2,0,2,23208,30446,2091,28148,0,0,0,0,0.00,0.00,0.00,0.00
2014-03-20 18:50:00,2,26768,0,0.00,2,2,0,2,23493,29326,1596,26562,0,0,0,0,0.00,0.00,0.00,0.00
2014-03-20 19:00:00,2,25362,0,0.00,2,2,0,2,19875,30374,3502,25628,0,0,0,0,0.00,0.00,0.00,0.00
2014-03-20 19:10:00,2,23627,0,0.00,2,2,0,2,21554,26412,1179,23688,0,0,0,0,0.00,0.00,0.00,0.00
2014-03-20 19:20:00,2,23016,0,0.00,2,2,0,2,21639,25109,1049,22737,0,0,0,0,0.00,0.00,0.00,0.00
2014-03-20 19:30:00,2,25895,0,0.00,2,2,0,2,24335,27598,951,25904,0,0,0,0,0.00,0.00,0.00,0.00
2014-03-20 19:40:00,2,25495,0,0.00,2,2,0,2,22537,28010,1946,25350,0,0,0,0,0.00,0.00,0.00,0.00
2014-03-20 19:50:00,2,25391,0,0.00,2,2,0,2,23083,27965,1710,25235,0,0,0,0,0.00,0.00,0.00,0.00
2014-03-20 20:00:00,2,27913,0,0.00,2,2,0,2,23472,30611,2141,27599,0,0,0,0,0.00,0.00,0.00,0.00
2014-03-20 20:10:00,2,28279,0,0.00,2,2,0,2,24076,31320,2405,28604,0,0,0,0,0.00,0.00,0.00,0.00
2014-03-20 20:20:00,2,29390,0,0.00,2,2,0,2,24957,32092,2438,30267,0,0,0,0,0.00,0.00,0.00,0.00
2014-03-20 20:30:00,2,27679,0,0.00,2,2,0,2,25147,31627,1942,27773,0,0,0,0,0.00,0.00,0.00,0.00
2014-03-20 20:40:00,2,26430,0,0.00,2,2,0,2,23677,29688,1589,26314,0,0,0,0,0.00,0.00,0.00,0.00
2014-03-20 20:50:00,2,28727,0,0.00,2,2,0,2,26275,31631,1708,28850,0,0,0,0,0.00,0.00,0.00,0.00
2014-03-20 21:00:00,2,30109,0,0.00,2,2,0,2,26163,34204,2550,30508,0,0,0,0,0.00,0.00,0.00,0.00
2014-03-20 21:10:00,2,33787,0,0.00,2,2,0,2,26931,40915,5104,31394,0,0,0,0,0.00,0.00,0.00,0.00
2014-03-20 21:20:00,2,28995,0,0.00,2,2,0,2,24101,34807,3202,27858,0,0,0,0,0.00,0.00,0.00,0.00
2014-03-20 21:30:00,2,34755,0,0.00,2,2,0,2,27697,41439,3851,34576,0,0,0,0,0.00,0.00,0.00,0.00
2014-03-20 21:40:00,2,33032,0,0.00,2,2,0,2,26677,41569,4143,33175,0,0,0,0,0.00,0.00,0.00,0.00
2014-03-20 21:50:00,2,32008,0,0.00,2,2,0,2,26328,38266,3976,32718,0,0,0,0,0.00,0.00,0.00,0.00
2014-03-20 22:00:00,2,28112,0,0.00,2,2,0,2,24103,35754,3728,26562,0,0,0,0,0.00,0.00,0.00,0.00
2014-03-20 22:10:00,2,30052,0,0.00,2,2,0,2,26138,33110,2758,30926,0,0,0,0,0.00,0.00,0.00,0.00
2014-03-20 22:20:00,2,29959,0,0.00,2,2,0,2,24047,33498,3073,31127,0,0,0,0,0.00,0.00,0.00,0.00
2014-03-20 22:30:00,2,28169,0,0.00,2,2,0,2,21585,40634,5248,26944,0,0,0,0,0.00,0.00,0.00,0.00
2014-03-20 22:40:00,2,24676,0,0.00,2,2,0,2,20607,30592,2870,24752,0,0,0,0,0.00,0.00,0.00,0.00
2014-03-20 22:50:00,2,26479,0,0.00,2,2,0,2,21484,34363,3440,26279,0,0,0,0,0.00,0.00,0.00,0.00
2014-03-20 23:00:00,2,30887,0,0.00,2,2,0,2,21429,41780,6206,29922,0,0,0,0,0.00,0.00,0.00,0.00
2014-03-20 23:10:00,2,31783,0,0.00,2,2,0,2,23015,37916,4790,32785,0,0,0,0,0.00,0.00,0.00,0.00
2014-03-20 23:20:00,2,28674,0,0.00,2,2,0,2,14961,37796,7238,29880,0,0,0,0,0.00,0.00,0.00,0.00
2014-03-20 23:30:00,2,32043,0,0.00,2,2,0,2,25324,45879,6527,29169,0,0,0,0,0.00,0.00,0.00,0.00
2014-03-20 23:40:00,2,27638,0,0.00,2,2,0,2,22940,32022,2802,27370,0,0,0,0,0.00,0.00,0.00,0.00
2014-03-20 23:50:00,2,29122,0,0.00,2,2,0,2,23391,36280,3975,28582,0,0,0,0,0.00,0.00,0.00,0.00
